Flag for Germany Weather past 2 weeks in Kehl, Baden-Württemberg, Germany

Now
66 °F

Clear.


Feels Like: 66 °F
Forecast: 50 / 70 °F
Wind: 5 mph from Northeast

Location: Strasbourg Airport

Current Time: Oct 2, 2014 at 1:14:41 PM

Latest Report: Oct 2, 2014 at 12:30 PM


Visibility: 6 mi

Pressure: 30.36 "Hg

Humidity: 78%

Dew point: 59 °F

Location of KehlLocation

Historic Weather in Kehl — Graph

°F

Kehl temperature yesterday

Maximum temperature yesterday: 75 °F (at 4:00 PM)
Minimum temperature yesterday: 52 °F (at 4:30 AM)
Average temperature yesterday: 62 °F

Past Weeks' High & Low Weather Summary

 TemperatureHumidityPressure
High79 °F (Sep 19, 1:30 PM)100% (Sep 19, 1:30 AM)30.39 "Hg (Sep 19, 1:30 AM)
Low41 °F (Sep 23, 2:30 AM)46% (Sep 26, 5:00 PM)29.83 "Hg (Sep 17, 4:00 PM)
Average60 °F82%30.13 "Hg
* Reported Sep 17 12:00 Noon — Oct 2 12:00 Noon, Kehl, Weather by CustomWeather, © 2014

Note: Actual official high and low records may vary slightly from our data, if they occured in-between our weather recording intervals... More about our weather records

Advertising

Kehl weather history for previous 24 hours

 ConditionsComfort  
Time TempWeatherWind HumidityBarometerVisibility
12:00 PM
Oct 2
64 °FPassing clouds.5 mph83%30.36 "Hg5 mi
11:46 AM63 °FScattered clouds.6 mph83%30.36 "Hg4 mi
11:30 AM61 °FPartly sunny.7 mph88%30.36 "Hg4 mi
11:00 AM59 °FFog.7 mph94%30.39 "Hg3 mi
10:30 AM57 °FFog.6 mph100%30.39 "Hg3 mi
10:00 AM57 °FFog.5 mph94%30.39 "Hg2 mi
9:30 AM55 °FFog.3 mph100%30.39 "Hg2 mi
9:00 AM55 °FFog.5 mph100%30.39 "Hg2 mi
8:30 AM55 °FFog.6 mph100%30.36 "Hg1 mi
8:00 AM55 °FFog.5 mph94%30.36 "Hg2 mi
7:30 AM52 °FFog.2 mph94%30.36 "Hg3 mi
7:00 AM50 °FClear.1 mph94%30.36 "Hg4 mi
6:30 AM50 °FClear.No wind100%30.36 "Hg6 mi
6:00 AM52 °FClear.1 mph94%30.36 "Hg6 mi
5:30 AM50 °FFog.1 mph100%30.36 "Hg3 mi
5:00 AM50 °FClear.1 mph100%30.36 "Hg4 mi
4:30 AM52 °FClear.2 mph100%30.36 "Hg6 mi
4:00 AM52 °FClear.1 mph94%30.36 "Hg4 mi
3:30 AM52 °FClear.No wind94%30.36 "Hg4 mi
3:00 AM52 °FClear.No wind100%30.36 "Hg6 mi
2:30 AM52 °FClear.2 mph94%30.36 "HgN/A
2:00 AM52 °FClear.1 mph94%30.36 "HgN/A
1:30 AM52 °FClear.2 mph94%30.36 "HgN/A
1:00 AM54 °FClear.1 mph94%30.36 "HgN/A
12:30 AM54 °FClear.No wind94%30.36 "HgN/A
12:00 AM54 °FClear.No wind94%30.36 "HgN/A
11:30 PM
Oct 1
55 °FClear.3 mph94%30.36 "HgN/A
11:00 PM57 °FClear.3 mph88%30.36 "HgN/A
10:30 PM59 °FClear.No wind88%30.36 "HgN/A
10:00 PM59 °FClear.2 mph88%30.33 "HgN/A
9:30 PM59 °FClear.3 mph88%30.33 "HgN/A
9:00 PM61 °FClear.3 mph88%30.33 "HgN/A
8:30 PM61 °FPassing clouds.5 mph83%30.33 "HgN/A
8:00 PM63 °FClear.5 mph83%30.33 "HgN/A
7:30 PM64 °FLight rain. Clear.5 mph83%30.30 "HgN/A
7:00 PM68 °FClear.3 mph73%30.30 "HgN/A
6:30 PM70 °FClear.6 mph69%30.30 "HgN/A
6:00 PM72 °FPartly sunny.6 mph65%30.30 "HgN/A
5:30 PM70 °FPartly sunny.6 mph69%30.30 "HgN/A
5:00 PM70 °FPassing clouds.8 mph69%30.30 "HgN/A
4:30 PM73 °FScattered clouds.8 mph53%30.30 "HgN/A
4:00 PM75 °FPassing clouds.2 mph50%30.30 "HgN/A
3:30 PM73 °FPassing clouds.3 mph53%30.30 "HgN/A
3:00 PM73 °FPartly sunny.3 mph57%30.30 "HgN/A
2:30 PM73 °FPassing clouds.6 mph57%30.30 "HgN/A
2:00 PM73 °FPassing clouds.3 mph61%30.30 "HgN/A
1:30 PM72 °FPassing clouds.5 mph65%30.33 "HgN/A
1:00 PM70 °FPassing clouds.5 mph73%30.33 "HgN/A
Weather by CustomWeather, © 2014

See weather overviewHow to use our weather pages